• In Czech Republic
  • List of Countries
  • For 7 days
  • Water Temperature
  • Satellite Maps
  • Weather Map
  • Weather Widgets
  • user-avatar
    Login

    Hourly Weather Hilo

    Today, 23 November, Thursday

    Time Temperature Precipitation Wind Pressure Humidity
    00:00 +22°C° 0.2 mm 4 mps 750 mmHg 88%
    01:00 +22°C° 0.2 mm 5 mps 749 mmHg 88%
    02:00 +22°C° 0.2 mm 5 mps 749 mmHg 89%
    03:00 +22°C° 0.3 mm 5 mps 749 mmHg 89%
    04:00 +22°C° 0.3 mm 5 mps 749 mmHg 89%
    05:00 +22°C° 0.3 mm 5 mps 749 mmHg 89%
    06:00 +22°C° 0.4 mm 5 mps 749 mmHg 88%
    07:00 +22°C° 0.4 mm 5 mps 750 mmHg 87%
    08:00 +23°C° 0.4 mm 6 mps 750 mmHg 86%
    09:00 +23°C° 0.3 mm 6 mps 750 mmHg 84%
    10:00 +23°C° 0.3 mm 6 mps 750 mmHg 83%
    11:00 +24°C° 0.3 mm 6 mps 750 mmHg 81%
    12:00 +24°C° 0.3 mm 6 mps 750 mmHg 80%
    13:00 +24°C° 0.3 mm 6 mps 749 mmHg 80%
    14:00 +24°C° 0.3 mm 6 mps 749 mmHg 79%
    15:00 +24°C° 0.3 mm 6 mps 749 mmHg 81%
    16:00 +23°C° 0.3 mm 6 mps 748 mmHg 83%
    17:00 +23°C° 0.3 mm 6 mps 748 mmHg 85%
    18:00 +23°C° 0.3 mm 6 mps 749 mmHg 86%
    19:00 +23°C° 0.3 mm 6 mps 749 mmHg 87%
    20:00 +22°C° 0.3 mm 6 mps 750 mmHg 88%
    21:00 +22°C° 0.3 mm 6 mps 750 mmHg 88%
    22:00 +22°C° 0.3 mm 6 mps 750 mmHg 89%
    23:00 +22°C° 0.3 mm 6 mps 750 mmHg 90%

    Tomorrow, 24 November, Friday

    Time Temperature Precipitation Wind Pressure Humidity
    00:00 +22°C° 0.4 mm 6 mps 750 mmHg 89%
    01:00 +22°C° 0.4 mm 6 mps 749 mmHg 89%
    02:00 +22°C° 0.4 mm 6 mps 749 mmHg 89%
    03:00 +22°C° 0.2 mm 6 mps 749 mmHg 90%
    04:00 +22°C° 0.2 mm 6 mps 749 mmHg 90%
    05:00 +22°C° 0.2 mm 6 mps 748 mmHg 90%
    06:00 +22°C° 0.1 mm 6 mps 749 mmHg 89%
    07:00 +22°C° 0.1 mm 6 mps 749 mmHg 87%
    08:00 +22°C° 0.1 mm 6 mps 750 mmHg 86%
    09:00 +23°C° 0.1 mm 6 mps 749 mmHg 83%
    10:00 +23°C° 0.1 mm 6 mps 749 mmHg 80%
    11:00 +24°C° 0.1 mm 6 mps 749 mmHg 76%
    12:00 +24°C° 0.1 mm 6 mps 749 mmHg 76%
    13:00 +24°C° 0.1 mm 6 mps 748 mmHg 77%
    14:00 +24°C° 0.1 mm 6 mps 748 mmHg 77%
    15:00 +24°C° 0.1 mm 6 mps 748 mmHg 78%
    16:00 +23°C° 0.1 mm 6 mps 748 mmHg 80%
    17:00 +23°C° 0.1 mm 6 mps 747 mmHg 81%
    18:00 +23°C° 0.1 mm 6 mps 748 mmHg 82%
    19:00 +22°C° 0.1 mm 6 mps 748 mmHg 84%
    20:00 +22°C° 0.1 mm 5 mps 749 mmHg 85%
    21:00 +22°C° 0.1 mm 5 mps 749 mmHg 85%
    22:00 +22°C° 0.1 mm 5 mps 749 mmHg 85%
    23:00 +22°C° 0.1 mm 5 mps 749 mmHg 86%

    Day after tomorrow, 25 November, Saturday

    Time Temperature Precipitation Wind Pressure Humidity
    00:00 +22°C° 0.1 mm 5 mps 749 mmHg 86%
    01:00 +22°C° 0.1 mm 5 mps 748 mmHg 86%
    02:00 +22°C° 0.1 mm 5 mps 748 mmHg 86%
    03:00 +21°C° 0.1 mm 5 mps 748 mmHg 86%
    04:00 +21°C° 0.1 mm 5 mps 748 mmHg 87%
    05:00 +21°C° 0.1 mm 5 mps 748 mmHg 87%
    06:00 +22°C° 0.1 mm 5 mps 748 mmHg 85%
    07:00 +22°C° 0.1 mm 5 mps 749 mmHg 83%
    08:00 +23°C° 0.1 mm 6 mps 749 mmHg 81%
    09:00 +23°C° 0.2 mm 6 mps 749 mmHg 79%
    10:00 +24°C° 0.2 mm 6 mps 749 mmHg 77%
    11:00 +24°C° 0.2 mm 6 mps 749 mmHg 75%
    12:00 +24°C° 0.2 mm 6 mps 749 mmHg 76%
    13:00 +24°C° 0.2 mm 6 mps 748 mmHg 76%
    14:00 +24°C° 0.2 mm 6 mps 747 mmHg 77%
    15:00 +24°C° 0.2 mm 6 mps 748 mmHg 79%
    16:00 +24°C° 0.2 mm 6 mps 748 mmHg 80%
    17:00 +23°C° 0.2 mm 6 mps 748 mmHg 82%
    18:00 +23°C° 0.3 mm 6 mps 748 mmHg 84%
    19:00 +23°C° 0.3 mm 6 mps 749 mmHg 85%
    20:00 +23°C° 0.3 mm 6 mps 749 mmHg 87%
    21:00 +23°C° 0.4 mm 6 mps 749 mmHg 87%
    22:00 +22°C° 0.4 mm 6 mps 749 mmHg 88%
    23:00 +22°C° 0.4 mm 6 mps 750 mmHg 88%

    26 November, Sunday

    Time Temperature Precipitation Wind Pressure Humidity
    00:00 +22°C° 0.4 mm 6 mps 749 mmHg 88%
    01:00 +22°C° 0.4 mm 6 mps 749 mmHg 88%
    02:00 +22°C° 0.4 mm 5 mps 749 mmHg 88%
    03:00 +22°C° 0.3 mm 5 mps 748 mmHg 88%
    04:00 +22°C° 0.3 mm 6 mps 748 mmHg 87%
    05:00 +22°C° 0.3 mm 6 mps 748 mmHg 87%
    06:00 +22°C° 0.3 mm 6 mps 749 mmHg 87%
    07:00 +22°C° 0.3 mm 6 mps 749 mmHg 87%
    08:00 +23°C° 0.3 mm 6 mps 750 mmHg 86%
    09:00 +23°C° 0.4 mm 6 mps 750 mmHg 85%
    10:00 +24°C° 0.4 mm 6 mps 750 mmHg 83%
    11:00 +24°C° 0.4 mm 6 mps 750 mmHg 82%
    12:00 +24°C° 0.5 mm 6 mps 749 mmHg 82%
    13:00 +25°C° 0.5 mm 5 mps 748 mmHg 82%
    14:00 +25°C° 0.5 mm 5 mps 747 mmHg 82%
    15:00 +25°C° 0.6 mm 5 mps 748 mmHg 83%
    16:00 +25°C° 0.6 mm 5 mps 748 mmHg 85%
    17:00 +23°C° 0.6 mm 5 mps 748 mmHg 86%
    18:00 +23°C° 0.6 mm 5 mps 748 mmHg 87%
    19:00 +23°C° 0.6 mm 5 mps 748 mmHg 87%
    20:00 +23°C° 0.6 mm 5 mps 749 mmHg 87%
    21:00 +23°C° 0.9 mm 4 mps 749 mmHg 87%
    22:00 +23°C° 0.9 mm 4 mps 749 mmHg 88%
    23:00 +23°C° 0.9 mm 4 mps 749 mmHg 88%

    27 November, Monday

    Time Temperature Precipitation Wind Pressure Humidity
    00:00 +24°C° 1.2 mm 3 mps 748 mmHg 88%
    01:00 +24°C° 1.2 mm 3 mps 748 mmHg 88%
    02:00 +24°C° 1.2 mm 3 mps 747 mmHg 88%
    03:00 +24°C° 0.9 mm 3 mps 747 mmHg 88%
    04:00 +24°C° 0.9 mm 3 mps 747 mmHg 89%
    05:00 +24°C° 0.9 mm 3 mps 747 mmHg 89%
    06:00 +24°C° 1.4 mm 3 mps 748 mmHg 89%
    07:00 +24°C° 1.4 mm 3 mps 748 mmHg 88%
    08:00 +24°C° 1.4 mm 3 mps 748 mmHg 87%
    09:00 +25°C° 1 mm 3 mps 748 mmHg 86%
    10:00 +25°C° 1 mm 3 mps 748 mmHg 86%
    11:00 +26°C° 1 mm 3 mps 748 mmHg 85%
    12:00 +26°C° 1.1 mm 3 mps 747 mmHg 85%
    13:00 +25°C° 1.1 mm 3 mps 747 mmHg 85%
    14:00 +25°C° 1.1 mm 3 mps 746 mmHg 85%
    15:00 +25°C° 1.3 mm 3 mps 746 mmHg 86%
    16:00 +25°C° 1.3 mm 3 mps 746 mmHg 87%
    17:00 +25°C° 1.3 mm 4 mps 746 mmHg 87%
    18:00 +25°C° 0.7 mm 4 mps 746 mmHg 88%
    19:00 +25°C° 0.7 mm 4 mps 747 mmHg 89%
    20:00 +23°C° 0.7 mm 4 mps 747 mmHg 91%
    21:00 +23°C° 1.3 mm 5 mps 747 mmHg 92%
    22:00 +23°C° 1.3 mm 5 mps 747 mmHg 93%
    23:00 +23°C° 1.3 mm 6 mps 747 mmHg 95%

    28 November, Tuesday

    Time Temperature Precipitation Wind Pressure Humidity
    00:00 +24°C° 1.9 mm 6 mps 747 mmHg 95%
    01:00 +24°C° 1.9 mm 7 mps 746 mmHg 95%
    02:00 +24°C° 1.9 mm 7 mps 746 mmHg 96%
    03:00 +24°C° 1.7 mm 7 mps 746 mmHg 95%
    04:00 +24°C° 1.7 mm 7 mps 746 mmHg 95%
    05:00 +24°C° 1.7 mm 7 mps 746 mmHg 94%
    06:00 +24°C° 1.5 mm 7 mps 747 mmHg 94%
    07:00 +24°C° 1.5 mm 7 mps 747 mmHg 94%
    08:00 +24°C° 1.5 mm 7 mps 748 mmHg 94%
    09:00 +24°C° 0.8 mm 6 mps 747 mmHg 92%
    10:00 +24°C° 0.8 mm 6 mps 747 mmHg 90%
    11:00 +24°C° 0.8 mm 6 mps 747 mmHg 89%
    12:00 +24°C° 0.2 mm 6 mps 747 mmHg 86%
    13:00 +26°C° 0.2 mm 6 mps 746 mmHg 83%
    14:00 +26°C° 0.2 mm 6 mps 746 mmHg 80%
    15:00 +26°C° 0.1 mm 6 mps 746 mmHg 81%
    16:00 +26°C° 0.1 mm 6 mps 746 mmHg 81%
    17:00 +25°C° 0.1 mm 5 mps 746 mmHg 82%
    18:00 +25°C° 0.1 mm 5 mps 746 mmHg 83%
    19:00 +25°C° 0.1 mm 5 mps 747 mmHg 83%
    20:00 +23°C° 0.1 mm 5 mps 747 mmHg 84%
    21:00 +23°C° 0.1 mm 5 mps 747 mmHg 84%
    22:00 +23°C° 0.1 mm 5 mps 747 mmHg 83%
    23:00 +23°C° 0.1 mm 5 mps 747 mmHg 83%
    Show more